WB5HZM-3 Weather Reports


Display with metric or nautical units.
time (UTC)temp
F
wind
direction
speed
MPH
gust
MPH
rain 1hr
in
rain 24hr
in
rain mn
in
humidity
%
barometer
mb
20260506073302 76 200 1.0 6.0 0.00 0.00 0.00 85 1009.7
20260506072317 76 201 2.0 5.0 0.00 0.00 0.00 85 1009.8
20260506071317 77 165 2.0 5.0 0.00 0.00 0.00 85 1010.2
20260506070314 77 157 1.0 7.0 0.00 0.00 0.00 85 1010.3
20260506062320 77 163 1.0 7.0 0.00 0.00 0.00 85 1010.4
20260506061315 77 175 3.0 9.0 0.00 0.00 0.00 85 1010.2
20260506060313 77 169 2.0 8.0 0.00 0.00 0.00 85 1010.1
20260506051311 76 205 1.0 6.0 0.00 0.00 0.00 85 1010.2
20260506050326 76 146 2.0 5.0 0.00 0.00 0.00 85 1010.2
20260506044323 76 162 2.0 5.0 0.00 0.00 0.00 85 1010.0
20260506043320 76 183 2.0 7.0 0.00 0.00 0.00 85 1009.9
20260506042320 76 171 2.0 9.0 0.00 0.00 0.00 85 1009.9
20260506041315 76 140 2.0 7.0 0.00 0.00 0.00 85 1009.7
20260506040331 76 178 2.0 6.0 0.00 0.00 0.00 85 1009.7
20260506035329 77 255 3.0 7.0 0.00 0.00 0.00 85 1009.8
20260506034324 77 190 2.0 7.0 0.00 0.00 0.00 85 1009.6
20260506033320 77 115 2.0 6.0 0.00 0.00 0.00 85 1009.7
20260506032336 77 178 3.0 7.0 0.00 0.00 0.00 85 1009.6
20260506031334 77 171 2.0 5.0 0.00 0.00 0.00 85 1009.5
20260506030228 77 171 1.0 7.0 0.00 0.00 0.00 85 1009.5
20260506025229 77 165 1.0 5.0 0.00 0.00 0.00 85 1009.5
20260506024225 77 184 1.0 3.0 0.00 0.00 0.00 85 1009.5
20260506023222 77 146 1.0 3.0 0.00 0.00 0.00 85 1009.4
20260506022239 77 148 1.0 4.0 0.00 0.00 0.00 85 1009.1
20260506021239 77 157 1.0 5.0 0.00 0.00 0.00 84 1008.8
20260506020235 78 142 2.0 8.0 0.00 0.00 0.00 84 1008.6
20260506015230 78 152 2.0 9.0 0.00 0.00 0.00 84 1008.3
20260506014229 78 217 1.0 7.0 0.00 0.00 0.00 84 1008.2
20260506013224 78 176 3.0 7.0 0.00 0.00 0.00 84 1008.2
20260506012241 79 202 3.0 7.0 0.00 0.00 0.00 83 1008.0
20260506011237 79 119 4.0 8.0 0.00 0.00 0.00 83 1007.8
20260506010236 79 121 4.0 7.0 0.00 0.00 0.00 82 1007.8
20260506005232 80 168 2.0 10.0 0.00 0.00 0.00 82 1007.7
20260506004228 80 147 2.0 7.0 0.00 0.00 0.00 82 1007.7
20260506003228 81 74 2.0 7.0 0.00 0.00 0.00 81 1007.5
20260506002243 81 140 2.0 7.0 0.00 0.00 0.00 81 1007.5
20260506001238 82 109 1.0 7.0 0.00 0.00 0.00 80 1007.6
20260506000240 82 169 2.0 9.0 0.00 0.00 0.00 79 1007.6
20260505235236 82 154 3.0 7.0 0.00 0.00 0.00 78 1007.6
20260505234232 83 215 3.0 6.0 0.00 0.00 0.00 77 1007.5
20260505233249 83 189 1.0 6.0 0.00 0.00 0.00 77 1007.6
20260505232250 83 151 2.0 8.0 0.00 0.00 0.00 77 1007.5
20260505231246 83 209 3.0 7.0 0.00 0.00 0.00 76 1007.6
20260505230242 83 136 2.0 4.0 0.00 0.00 0.00 76 1007.6
20260505225242 83 108 3.0 8.0 0.00 0.00 0.00 74 1007.6
20260505224238 84 190 2.0 7.0 0.00 0.00 0.00 74 1007.5
20260505223255 84 163 5.0 12.0 0.00 0.00 0.00 73 1007.6
20260505222250 84 129 2.0 7.0 0.00 0.00 0.00 73 1007.5
20260505221249 84 211 2.0 8.0 0.00 0.00 0.00 74 1007.5
20260505220244 84 130 3.0 8.0 0.00 0.00 0.00 74 1007.6
20260505215240 84 139 4.0 9.0 0.00 0.00 0.00 73 1007.6
20260505214240 84 161 2.0 10.0 0.00 0.00 0.00 73 1007.8
20260505213254 85 153 2.0 9.0 0.00 0.00 0.00 73 1007.8
20260505212250 84 184 2.0 7.0 0.00 0.00 0.00 73 1007.9
20260505211251 84 184 4.0 8.0 0.00 0.00 0.00 72 1008.0
20260505210247 84 214 2.0 9.0 0.00 0.00 0.00 74 1008.1
20260505205244 84 207 2.0 10.0 0.00 0.00 0.00 74 1008.3
20260505204259 84 128 2.0 6.0 0.00 0.00 0.00 75 1008.4
20260505203258 84 115 2.0 12.0 0.00 0.00 0.00 74 1008.6
20260505202253 84 210 3.0 11.0 0.00 0.00 0.00 74 1008.8
20260505201249 84 188 5.0 10.0 0.00 0.00 0.00 73 1008.9
20260505200248 84 268 5.0 10.0 0.00 0.00 0.00 74 1009.0
20260505195305 83 175 1.0 17.0 0.00 0.00 0.00 75 1009.1
20260505194258 83 238 2.0 8.0 0.00 0.00 0.00 76 1009.4
20260505193254 82 126 2.0 9.0 0.00 0.00 0.00 77 1009.4
20260505192255 82 209 4.0 10.0 0.00 0.00 0.00 76 1009.4
20260505191251 82 210 4.0 9.0 0.00 0.00 0.00 77 1009.4
20260505190305 82 203 3.0 9.0 0.00 0.00 0.00 77 1009.6
20260505185305 81 242 3.0 13.0 0.00 0.00 0.00 78 1009.6
20260505184259 81 166 4.0 11.0 0.00 0.00 0.00 78 1009.7
20260505183254 81 150 2.0 10.0 0.00 0.00 0.00 79 1009.9
20260505182253 80 228 2.0 8.0 0.00 0.00 0.00 79 1009.9
20260505181307 80 173 2.0 11.0 0.00 0.00 0.00 79 1009.8
20260505180302 80 242 3.0 7.0 0.00 0.00 0.00 79 1009.9
20260505175256 80 257 3.0 13.0 0.00 0.00 0.00 80 1010.0
20260505174254 80 156 5.0 14.0 0.00 0.00 0.00 80 1010.1
20260505173309 79 246 1.0 10.0 0.00 0.00 0.00 81 1010.2
20260505172306 78 175 2.0 8.0 0.00 0.00 0.00 82 1010.1
20260505171303 78 129 2.0 9.0 0.00 0.00 0.00 82 1010.2
20260505170258 78 181 2.0 10.0 0.00 0.00 0.00 81 1010.3
20260505165312 78 149 2.0 7.0 0.00 0.00 0.00 81 1010.3
20260505164308 78 300 1.0 9.0 0.00 0.00 0.00 81 1010.3
20260505163306 78 186 2.0 7.0 0.00 0.00 0.00 81 1010.3
20260505162305 78 166 5.0 13.0 0.00 0.00 0.00 81 1010.4
20260505161258 78 97 4.0 9.0 0.00 0.00 0.00 81 1010.5
20260505160259 78 179 3.0 9.0 0.00 0.00 0.00 81 1010.4
20260505153306 77 142 3.0 12.0 0.00 0.00 0.00 82 1010.3
20260505152305 77 180 1.0 10.0 0.00 0.00 0.00 83 1010.2
20260505151319 76 247 4.0 13.0 0.00 0.00 0.00 84 1010.3
20260505150316 76 221 2.0 10.0 0.00 0.00 0.00 84 1010.2
20260505140318 74 209 3.0 10.0 0.00 0.00 0.00 85 1009.9
20260505124311 71 128 2.0 6.0 0.00 0.00 0.00 85 1009.8
20260505123312 70 140 2.0 4.0 0.00 0.00 0.00 86 1009.4
20260505122328 70 126 1.0 4.0 0.00 0.00 0.00 85 1009.4
20260505121323 70 125 2.0 4.0 0.00 0.00 0.00 85 1009.8
20260505120324 70 138 1.0 3.0 0.00 0.00 0.00 85 1009.8
20260505115319 70 125 1.0 3.0 0.00 0.00 0.00 86 1009.5
20260505114315 70 135 1.0 3.0 0.00 0.00 0.00 86 1009.7
20260505113315 69 142 1.0 3.0 0.00 0.00 0.00 86 1009.7
20260505112331 69 103 1.0 5.0 0.00 0.00 0.00 86 1009.4
20260505111325 69 136 1.0 3.0 0.00 0.00 0.00 86 1009.3
20260505110225 69 135 1.0 4.0 0.00 0.00 0.00 86 1009.4
20260505101228 69 178 1.0 4.0 0.00 0.00 0.00 86 1009.5
20260505100224 69 127 2.0 4.0 0.00 0.00 0.00 86 1009.5
20260505095224 69 150 2.0 8.0 0.00 0.00 0.00 86 1009.6
20260505094240 69 128 3.0 6.0 0.00 0.00 0.00 86 1009.6
20260505093237 69 123 1.0 4.0 0.00 0.00 0.00 86 1009.8
20260505092238 69 95 2.0 6.0 0.00 0.00 0.00 86 1009.9
20260505091233 70 169 0.0 3.0 0.00 0.00 0.00 86 1010.0
20260505090230 70 190 1.0 5.0 0.00 0.00 0.00 86 1010.0
20260505085224 70 120 2.0 6.0 0.00 0.00 0.00 85 1010.0
20260505084244 70 190 2.0 3.0 0.00 0.00 0.00 85 1010.0
20260505083240 70 157 1.0 5.0 0.00 0.00 0.00 85 1010.2
20260505082236 70 153 0.0 3.0 0.00 0.00 0.00 85 1010.4
20260505081235 70 169 1.0 3.0 0.00 0.00 0.00 85 1010.5
20260505080229 70 136 3.0 8.0 0.00 0.00 0.00 85 1010.2
20260505075244 70 200 3.0 4.0 0.00 0.00 0.00 84 1010.3
20260505074240 70 157 2.0 5.0 0.00 0.00 0.00 84 1010.3